User: anonymous   Login
Location: Bavegemberg
(50.9500°N, 3.8833°E)
Time: 17:18:55
(UTC+00:00)
Language:

ATLAS 2AS CENTAUR R/B - Orbit

View from above orbital plane
View from above orbital plane
View from above satellite
View from above satellite

Ground track
Ground track

The orbit data is extracted from the following two-line orbital elements,

1 28096U 03054B   24203.92779087 -.00000006  00000-0  14166-3 0  9995
2 28096  63.6810 350.3541 0115168 167.2456 193.1528 13.40979847  9184
Epoch (UTC): 21 July 2024 22:16:01
Eccentricity: 0.0115168
inclination: 63.6810°
perigee height: 1019 km
apogee height: 1192 km
right ascension of ascending node: 350.3541°
argument of perigee: 167.2456°
revolutions per day: 13.40979847
mean anomaly at epoch: 193.1528°
orbit number at epoch: 918

The dashed part of the orbit path shows where the satellite is in the earth's shadow,  

DLR